Location: Drocourt
(49.0571°N, 1.7669°E)
Time: 18:42:27
(UTC+00:00)

SL-08 R/B - Pass Details

Date: 09 February 2023
Orbit: 672 x 737 km, 98.5° (Epoch: 25 March)

Event Time Altitude Azimuth Distance (km) Brightness Sun altitude
Rises 17:51:28 0° 13° (NNE) 3,184 6.5 -8.4°
Reaches altitude 10° 17:53:46 10° 11° (N) 2,258 5.7 -8.8°
Maximum altitude 17:58:43 74° 288° (WNW) 773 3.7 -9.6°
Drops below altitude 10° 18:03:37 10° 204° (SSW) 2,231 6.4 -10.4°
Sets 18:05:53 0° 202° (SSW) 3,143 7.2 -10.8°
